sat.trackr.live / text

‹ back to catalog

STARLINK-1166

NORAD 45060 · 2020-006S

PAYLOAD ACTIVE UNKNOWN

§ Identity

Operator
Country
US
Launch date
2020-01-29
Launch site
AFETR
Launch vehicle
Mass (kg)
RCS (m²)

Purposes: comms

External: N2YO · Heavens-Above · Gunter

§ Orbital elements

Epoch: 2026-05-25T04:12:09.963648Z

Period
92.49 min
Inclination
53.0460°
Eccentricity
0.0003252
Mean motion
15.56966236 rev/d
Perigee alt
394.2 km
Apogee alt
398.6 km
Semi-major
6,774.6 km
B*
1.1429e-3
RAAN
264.9092°
Arg perigee
322.2751°
Mean anomaly
37.8031°
Rev number
34,853

§ Raw data

STARLINK-11661 45060U 20006S   26145.17511532  .00084305  00000+0  11429-2 0  99942 45060  53.0460 264.9092 0003252 322.2751  37.8031 15.56966236348535

JSON: /api/v1/satellites/45060 · /tle

For live sub-satellite position, see the globe view (requires WebGL).

§ Visibility from observer

Set your observer location to see the next 7 days of passes ≥ 10°. The values pass through the URL so the page stays shareable.

No JS? Fill the form by hand. The geolocation button needs JavaScript.